Location: Fort Worth, Tx
(32.7431°N, 97.3695°W)
Time: 05:36:14
(UTC-05:00)

Altair - Pass Details

Date: 03 October 2023
Orbit: 1501 x 1682 km, 47.2° (Epoch: 06 December)

Event Time Altitude Azimuth Distance (km) Brightness Sun altitude
Rises 11:48:56 0° 301° (WNW) 4,926 9.7 38.9°
Reaches altitude 10° 11:52:25 10° 293° (WNW) 3,943 9.3 39.5°
Maximum altitude 12:01:20 37° 231° (SW) 2,411 8.8 40.9°
Drops below altitude 10° 12:10:12 10° 169° (SSE) 3,895 10.4 42.3°
Sets 12:13:39 0° 161° (SSE) 4,860 10.8 42.8°
